Date String (YYYY-MM-DD hh:mm:ss) UTC,Instrument flags,absolute air pressure of the measurement (hPa),sample flow rate (lpm),inlet stack bypass flow (lpm),air temperature of the measurement (°C),ambient temperature measured by the external sensor (°C),aerosol sample conditioner tube jacket temperature (°C),OPC LED temperature (°C),internal box temperature (°C),relative humidity of the measurement (%),span deviation,mass concentration of particles derived from Lorenz-Mie calculation of OPC scattering (μg/m³),mass concentration of particles derived from Lorenz-Mie calculation of OPC scattering (μg/m³),mass concentration of particles derived from Lorenz-Mie calculation of OPC scattering (μg/m³)
DateTimeUTC,F1_M11,P_M11,Q1_M11,Q2_M11,T1_M11,T2_M11,T3_M11,T4_M11,T5_M11,U1_M11,ZSPAN_M11,X2_M11,X0_M11,X1_M11
2023-06-24 14:00:00,SystemResetWarning,0830.0,5.00,000.00,030.3,028.8,000.0,038.8,031.8,12.9,0000.0,0005.36,0016.63,0004.00
2023-06-24 14:01:00,SystemResetWarning,0830.1,5.00,000.00,030.3,028.7,000.0,038.8,031.8,12.3,0000.0,0005.35,0016.88,0004.00
2023-06-24 14:02:00,SystemResetWarning,0830.1,4.99,000.00,030.4,027.1,000.0,038.8,031.9,11.6,0000.0,0005.39,0015.87,0004.01
2023-06-24 14:03:00,SystemResetWarning,0830.1,5.00,000.00,030.3,025.2,000.0,038.7,031.7,10.7,0000.0,0005.35,0015.38,0004.01
2023-06-24 14:04:00,SystemResetWarning,0830.1,5.01,000.00,030.3,025.3,000.0,038.7,031.6,11.0,0000.0,0005.34,0015.72,0004.02
2023-06-24 14:05:00,SystemResetWarning,0830.0,5.01,000.00,030.2,025.7,000.0,038.7,031.3,12.0,0000.0,0005.27,0015.68,0004.03
2023-06-24 14:06:00,SystemResetWarning,0830.0,4.99,000.00,030.1,026.1,000.0,038.7,031.3,13.1,0000.6,0005.21,0015.40,0004.03
2023-06-24 14:07:00,SystemResetWarning,0830.1,4.99,000.00,030.0,026.5,000.0,038.7,031.3,12.7,0000.0,0005.21,0014.89,0004.04
2023-06-24 14:08:00,SystemResetWarning,0830.0,5.01,000.00,030.0,026.9,000.0,038.6,031.3,13.8,0000.0,0005.23,0014.90,0004.03
2023-06-24 14:09:00,SystemResetWarning,0830.0,5.02,000.00,030.0,027.2,000.0,038.6,031.3,14.4,0000.0,0005.27,0015.35,0004.03
2023-06-24 14:10:00,SystemResetWarning,0830.0,4.99,000.00,030.0,027.5,000.0,038.6,031.4,13.7,0003.3,0005.21,0014.14,0004.04
2023-06-24 14:11:00,SystemResetWarning,0830.0,5.00,000.00,030.0,027.7,000.0,038.6,031.4,13.7,0000.4,0005.15,0013.60,0004.05
2023-06-24 14:12:00,SystemResetWarning,0830.0,5.01,000.00,030.0,027.9,000.0,038.6,031.4,12.2,0000.0,0005.19,0013.42,0004.06
2023-06-24 14:13:00,SystemResetWarning,0830.1,5.01,000.00,030.0,028.0,000.0,038.6,031.4,13.2,0000.0,0005.23,0013.87,0004.06
2023-06-24 14:14:00,SystemResetWarning,0830.1,5.01,000.00,030.0,028.1,000.0,038.6,031.4,12.2,0000.0,0005.31,0014.76,0004.06
2023-06-24 14:15:00,SystemResetWarning,0830.0,5.00,000.00,030.0,028.2,000.0,038.6,031.5,12.7,0000.0,0005.38,0015.10,0004.06
2023-06-24 14:16:00,SystemResetWarning,0830.0,5.00,000.00,030.0,028.3,000.0,038.6,031.5,12.3,0000.0,0005.49,0015.95,0004.06
2023-06-24 14:17:00,SystemResetWarning,0830.0,5.00,000.00,030.1,028.4,000.0,038.6,031.5,12.7,0000.0,0005.57,0017.29,0004.08
2023-06-24 14:18:00,SystemResetWarning,0830.1,5.00,000.00,030.1,028.5,000.0,038.6,031.5,13.3,0000.0,0005.60,0018.02,0004.08
2023-06-24 14:19:00,SystemResetWarning,0830.1,5.00,000.00,030.1,028.5,000.0,038.6,031.6,13.6,0000.8,0005.63,0018.10,0004.08
2023-06-24 14:20:00,SystemResetWarning,0830.1,5.00,000.00,030.1,028.6,000.0,038.6,031.6,12.9,0000.0,0005.62,0018.03,0004.07
2023-06-24 14:21:00,SystemResetWarning,0830.0,5.01,000.00,030.2,028.6,000.0,038.7,031.6,14.0,0000.0,0005.61,0018.32,0004.07
2023-06-24 14:22:00,SystemResetWarning,0830.0,5.01,000.00,030.2,028.7,000.0,038.7,031.6,13.7,0002.0,0005.65,0018.27,0004.06
2023-06-24 14:23:00,SystemResetWarning,0830.0,5.00,000.00,030.2,028.5,000.0,038.7,031.7,13.5,0001.9,0005.60,0017.86,0004.04
2023-06-24 14:24:00,SystemResetWarning,0830.0,4.98,000.00,030.2,026.7,000.0,038.6,031.8,13.2,0003.4,0005.58,0018.46,0004.04
2023-06-24 14:25:00,SystemResetWarning,0830.0,5.01,000.00,030.2,025.1,000.0,038.6,031.7,12.7,0003.7,0005.53,0017.33,0004.05
2023-06-24 14:26:00,SystemResetWarning,0830.1,5.02,000.00,030.1,025.3,000.0,038.5,031.5,13.9,0003.7,0005.49,0017.07,0004.04
2023-06-24 14:27:00,SystemResetWarning,0830.1,5.00,000.00,030.0,025.7,000.0,038.5,031.2,13.9,0002.8,0005.49,0016.92,0004.04
2023-06-24 14:28:00,SystemResetWarning,0830.0,5.00,000.00,030.0,026.1,000.0,038.5,031.2,13.0,0003.2,0005.42,0016.23,0004.03
2023-06-24 14:29:00,SystemResetWarning,0830.0,4.98,000.00,029.9,026.6,000.0,038.5,031.2,15.3,0003.5,0005.39,0015.90,0004.03
2023-06-24 14:30:00,SystemResetWarning,0830.1,4.99,000.00,029.9,026.9,000.0,038.5,031.2,15.3,0002.9,0005.35,0015.94,0004.03
2023-06-24 14:31:00,SystemResetWarning,0830.0,5.00,000.00,029.9,027.2,000.0,038.5,031.3,14.3,0002.9,0005.26,0015.78,0004.02
2023-06-24 14:32:00,SystemResetWarning,0830.0,5.01,000.00,029.9,027.5,000.0,038.5,031.3,14.4,0003.2,0005.28,0015.59,0004.02
2023-06-24 14:33:00,SystemResetWarning,0830.0,4.99,000.00,029.9,027.7,000.0,038.5,031.3,14.0,0003.3,0005.25,0015.63,0004.01
2023-06-24 14:34:00,SystemResetWarning,0830.0,4.99,000.00,029.9,027.9,000.0,038.5,031.3,13.4,0003.4,0005.29,0016.27,0004.01
2023-06-24 14:35:00,SystemResetWarning,0830.0,5.00,000.00,029.9,028.0,000.0,038.5,031.3,13.7,0003.1,0005.27,0016.37,0004.01
2023-06-24 14:36:00,SystemResetWarning,0830.1,5.00,000.00,029.9,028.1,000.0,038.5,031.4,14.1,0002.3,0005.27,0016.62,0003.99
2023-06-24 14:37:00,SystemResetWarning,0830.1,5.00,000.00,029.9,028.2,000.0,038.5,031.4,12.6,0000.0,0005.29,0016.47,0003.99
2023-06-24 14:38:00,SystemResetWarning,0830.2,4.99,000.00,030.0,028.3,000.0,038.5,031.4,12.9,0000.6,0005.21,0015.99,0003.97
2023-06-24 14:39:00,SystemResetWarning,0830.2,5.00,000.00,030.0,028.4,000.0,038.5,031.4,12.8,0000.0,0005.25,0015.58,0003.97
2023-06-24 14:40:00,SystemResetWarning,0830.1,4.99,000.00,030.0,028.3,000.0,038.5,031.5,14.0,0000.0,0005.28,0015.60,0003.96
2023-06-24 14:41:00,SystemResetWarning,0830.1,4.99,000.00,030.0,026.5,000.0,038.5,031.6,13.9,0000.0,0005.30,0015.99,0003.95
2023-06-24 14:42:00,SystemResetWarning,0830.1,5.00,000.00,030.0,024.9,000.0,038.4,031.4,12.9,0000.0,0005.34,0015.71,0003.97
2023-06-24 14:43:00,SystemResetWarning,0830.1,5.01,000.00,029.9,025.1,000.0,038.3,031.3,12.5,0000.0,0005.32,0015.17,0003.96
2023-06-24 14:44:00,SystemResetWarning,0830.1,5.01,000.00,029.8,025.5,000.0,038.3,031.1,13.3,0000.0,0005.31,0015.10,0003.95
2023-06-24 14:45:00,SystemResetWarning,0830.1,4.99,000.00,029.8,025.9,000.0,038.3,031.1,14.5,0000.0,0005.28,0014.43,0003.95
2023-06-24 14:46:00,SystemResetWarning,0830.1,5.00,000.00,029.8,026.4,000.0,038.3,031.0,15.4,0000.0,0005.28,0013.44,0003.96
2023-06-24 14:47:00,SystemResetWarning,0830.1,5.01,000.00,029.7,026.7,000.0,038.3,031.0,14.3,0000.0,0005.31,0013.43,0003.97
2023-06-24 14:48:00,SystemResetWarning,0830.1,4.99,000.00,029.7,027.0,000.0,038.3,031.1,13.4,0000.0,0005.29,0013.46,0003.97
2023-06-24 14:49:00,SystemResetWarning,0830.1,4.99,000.00,029.7,027.3,000.0,038.3,031.1,14.2,0000.0,0005.32,0013.32,0003.98
2023-06-24 14:50:00,SystemResetWarning,0830.2,5.00,000.00,029.7,027.5,000.0,038.3,031.2,15.1,0000.0,0005.34,0012.87,0003.98
2023-06-24 14:51:00,SystemResetWarning,0830.1,5.00,000.00,029.7,027.7,000.0,038.3,031.2,12.5,0000.0,0005.32,0013.44,0003.98
2023-06-24 14:52:00,SystemResetWarning,0830.1,5.00,000.00,029.8,027.9,000.0,038.3,031.2,12.9,0000.0,0005.32,0013.26,0003.97
2023-06-24 14:53:00,SystemResetWarning,0830.1,5.00,000.00,029.8,028.0,000.0,038.3,031.3,13.3,0000.0,0005.33,0013.79,0003.96
2023-06-24 14:54:00,SystemResetWarning,0830.2,5.00,000.00,029.8,028.1,000.0,038.3,031.3,14.1,0000.0,0005.34,0014.18,0003.97
2023-06-24 14:55:00,SystemResetWarning,0830.2,5.00,000.00,029.8,028.2,000.0,038.3,031.3,12.3,0000.0,0005.32,0014.10,0003.98
2023-06-24 14:56:00,SystemResetWarning,0830.2,5.01,000.00,029.8,028.3,000.0,038.4,031.3,12.1,0000.0,0005.35,0014.39,0003.99
2023-06-24 14:57:00,SystemResetWarning,0830.2,5.00,000.00,029.9,028.4,000.0,038.4,031.4,11.8,0000.0,0005.39,0014.66,0003.99
2023-06-24 14:58:00,SystemResetWarning,0830.2,4.99,000.00,029.9,028.4,000.0,038.4,031.4,12.0,0000.0,0005.38,0013.91,0003.99
2023-06-24 14:59:00,SystemResetWarning,0830.2,4.98,000.00,029.9,026.9,000.0,038.3,031.5,12.2,0000.0,0005.43,0013.95,0004.00
